Tracking 22993 objects as of 11-May-2021
HD Live streaming from Space Station
objects crossing your sky now

YAOGAN-33

Track YAOGAN-33 now!
10-day predictions


NORAD ID: 47302
Int'l Code: 2020-103A
Perigee: 702.3 km
Apogee: 703.9 km
Inclination: 98.3 °
Period: 98.7 minutes
Semi major axis: 7074 km
RCS: Unknown
Launch date: December 27, 2020
Source: People's Republic of China (PRC)
Launch site: Jiuquan Satellite Launch Center, China (JSC)
aabbcc
Your satellite tracking list
Your tracking list is empty




NASA's NSSDC Master Catalog

Two Line Element Set (TLE):
1 47302U 20103A   21131.10285040  .00000066  00000-0  23823-4 0  9994
2 47302  98.2572  20.4389 0001149 103.4077 256.7254 14.59146173 19613
Source of the keplerian elements: AFSPC